STARLINK-4323, 53069

Orbit data source: Space-Track

STARLINK-4323, 53069 is a payload satellite owned by SpaceX/Seattle (US) in SSO that was launched on Mon, 11 Jul 2022 UTC via an FALCON 9 launch vehicle from the Air Force Western Test Range (AFWTR). Payload-class satellites include a variety of spacecraft equipped with specific instruments for various scientific and technological missions. These include communications satellites like Starlink; space stations such as the ISS; scientific satellites like the Hubble; Earth observation satellites from companies like Planet Labs, Umbra, and HawkEye 360; GPS; miniature CubeSats for education and research; and military/defense satellites.

Loading next visibility...
Identifier
53069, 2022-077AC
Orbit
SSO
Country
Flag of USUS
Related business
Manufacturer
SpaceX/Seattle
Mission
Operational Commercial Communications
Bus & Motor
STARLINK, Unknown motor
Mass
297 kg wet, ~275 kg dry
Launch date (UTC)
2022-07-11 (3 years ago)
Launch vehicle
FALCON 9
Launch site
Air Force Western Test Range (AFWTR)
Object type
Payload
Rocket body
Debris
Shape & HBR
Box + 1 Pan, 10.1 m
Radar Cross Section
13.562 m², Large (>1 m²)

Expand to show TLE details & history
Last TLE update: 16 hours ago

TLE from 16 hours ago
0 STARLINK-4323
1 53069U 22077AC  25348.95357454 -.00000508  00000-0 -35012-4 0  9995
2 53069  97.6011 167.2529 0001477  91.4724 268.6669 15.01258894188202
Epoch: 2025-12-14T22:53Z
TLE epoch observation values (Epoch: 2025-12-14T22:53:08.840Z)
Latitude
-0.00007°
Longitude
100.10698°
Altitude
566.097 km
Speed
7.578 km/s
True Right ascension
11h 09m 00s
True Declination
0° 00' 00"
Sunlit
Object was in daylight at epoch
Visualization orbit readout
Latitude
Unknown
Longitude
Unknown
Altitude
Unknown
Speed
Unknown
Apparent Right ascension
Unknown
Apparent Declination
Unknown
Sunlit
N/A
Visualization observer readout
Local Sidereal Time
13:20:32
Azimuth
Unknown
Elevation
Unknown
Doppler factor
Unknown
Orbital elements
Apogee altitude
561.037 km
Perigee altitude
558.988 km
Semi-major axis
6,938.15 km
Eccentricity
0.00015
Inclination
97.6011°
RAAN
167.2529°
Arg. of periapsis
91.4724°
True anomaly
268.64998°
Mean anomaly
268.6669°
Eccentric anomaly
268.65844°
Mean motion
3.75559 °/min
Orbital period
95.86 mins
BSTAR
-0.000035012
Loading maneuver chart data...
Computing Atmospheric mass density...
Loading historical data...
Loading historical data...
Loading historical data...
Loading historical data...
Loading historical data...
Loading historical data...
Loading historical data...

Documentation

Showing up to 5 results
|